Wind_Speed
54 57 60 64 68 71 71 72 76 79 82 85 88 92 90 89 86 85 86 87 94 96 87 69 52 44 39 33 28 30 40 54 65 73 80 84 86 88 91 93 92 90 91 93 102 103 102
53 56 60 62 66 70 70 71 77 78 81 85 88 92 92 91 90 88 91 90 97 97 90 76 53 43 39 33 25 26 37 49 63 73 78 83 86 87 89 93 95 92 91 94 99 105 102
53 54 59 62 63 68 68 71 75 77 80 85 88 91 92 93 95 90 92 92 95 98 95 80 52 41 39 33 23 22 32 42 57 70 76 82 84 87 89 94 95 94 94 96 97 103 105
53 53 56 61 63 65 66 69 73 77 79 84 88 90 91 92 94 93 92 94 96 98 91 77 54 43 41 33 21 17 26 38 49 62 73 79 84 88 90 89 95 97 97 97 96 99 104
52 55 55 58 62 63 65 68 71 75 78 83 88 90 90 91 91 93 94 94 95 98 88 73 57 48 43 32 19 13 22 36 46 55 70 79 80 83 87 90 94 96 95 94 95 97 99
52 52 55 57 60 62 63 67 70 74 77 81 86 88 88 90 93 94 97 94 95 98 88 78 59 50 45 33 20 12 16 31 47 52 69 79 81 79 86 88 86 90 92 92 95 97 96
53 52 55 57 58 60 61 66 67 72 75 78 82 86 88 90 90 92 95 97 94 95 87 78 62 50 46 36 23 14 9 24 43 48 66 75 76 79 83 87 88 87 94 96 97 99 101
52 52 55 57 58 59 59 64 65 70 74 77 81 85 87 88 90 92 95 97 98 94 89 81 66 53 49 39 29 17 7 20 38 42 59 70 75 75 81 84 85 86 90 95 99 100 101
53 54 57 57 57 59 58 61 63 69 72 74 78 82 85 85 89 90 96 97 96 89 89 79 69 55 50 42 33 22 8 19 29 43 55 65 68 73 77 80 82 84 86 91 97 99 99
54 56 58 58 57 60 58 59 61 66 68 73 75 79 82 84 84 86 94 100 96 84 87 83 71 58 50 45 36 26 8 16 28 46 56 63 69 70 71 76 79 81 84 88 91 93 97
53 56 58 59 58 56 57 57 59 63 67 70 73 76 79 81 81 84 91 98 99 94 87 84 74 59 49 46 38 29 14 15 32 45 52 58 62 67 70 72 74 74 79 83 86 86 88
58 60 58 58 56 56 56 56 57 61 66 67 71 74 76 79 80 81 89 96 98 92 90 83 77 63 50 46 39 30 19 2 30 42 49 54 60 62 65 67 68 74 76 78 79 81 82
60 60 57 59 54 53 54 54 56 57 64 64 70 71 74 77 77 77 85 91 96 95 87 84 77 68 54 45 39 30 20 6 21 33 41 44 48 56 62 66 70 71 73 73 74 76 76
59 57 55 56 53 50 52 52 53 56 61 63 68 68 71 75 74 76 81 89 94 94 89 83 75 70 60 46 40 31 21 12 8 25 33 37 46 51 55 60 65 68 69 68 68 70 74
58 55 52 55 52 49 50 49 53 55 59 61 65 66 68 72 72 71 78 84 89 97 89 81 78 71 65 51 41 33 23 14 7 14 23 27 35 43 50 57 59 60 63 64 65 69 74
58 56 54 54 51 47 48 47 50 54 58 58 62 63 64 68 69 67 73 78 85 91 93 80 77 73 71 58 41 33 25 16 8 11 20 27 34 39 44 49 54 56 60 64 66 68 69
57 56 57 54 49 47 45 46 48 53 55 56 59 60 61 66 66 65 71 74 82 89 93 85 74 74 67 65 46 32 26 19 10 5 12 18 27 35 38 43 49 54 56 59 63 64 65
53 55 55 53 49 46 43 43 50 51 53 54 56 58 58 62 62 61 66 71 77 86 94 93 77 76 71 64 55 35 27 20 13 5 6 18 25 26 32 39 44 49 54 57 59 61 64
52 54 52 52 47 45 44 45 47 51 52 53 52 53 56 59 61 59 64 68 73 82 88 93 86 74 70 67 61 45 27 19 15 10 7 11 23 29 34 38 41 46 51 55 58 61 61
51 52 52 52 47 45 45 46 47 50 50 52 50 50 53 56 57 56 61 63 72 78 85 90 92 82 75 69 60 54 40 24 16 11 10 12 16 27 33 38 41 46 51 54 54 54 60
48 52 51 50 45 46 44 45 47 47 48 47 47 47 49 53 56 54 60 63 68 73 81 86 89 89 80 73 66 54 46 34 20 12 11 12 15 21 28 36 40 46 50 55 57 62 59
45 47 48 46 44 42 43 46 47 43 45 43 45 45 47 49 53 53 57 60 65 72 78 82 89 94 89 78 68 67 48 36 27 18 13 13 15 20 25 31 37 43 46 52 55 59 59
41 44 46 44 39 39 42 43 41 40 41 39 44 44 45 46 52 50 55 59 64 69 74 82 85 90 90 82 72 65 56 38 30 23 17 14 15 18 23 27 32 38 41 43 50 55 59
35 42 45 42 42 39 41 41 37 38 38 38 43 44 44 44 49 48 53 56 62 67 73 78 83 84 83 81 78 69 60 46 35 27 22 17 17 17 19 24 28 31 31 36 39 44 48
33 36 38 40 39 38 39 36 34 36 35 38 42 43 42 45 46 46 52 56 61 66 71 76 83 83 87 87 82 78 62 52 41 31 24 21 20 21 21 21 25 24 27 29 31 32 37
33 35 36 35 35 35 38 36 34 34 34 37 41 42 42 41 45 46 51 54 59 64 68 74 79 83 84 90 82 73 64 52 42 33 28 24 23 23 23 24 25 24 24 27 29 31 35
30 35 36 35 35 35 36 36 36 34 35 39 40 41 42 42 43 46 51 54 59 64 68 70 77 81 84 88 85 74 62 55 47 38 30 26 27 28 26 27 29 25 26 26 28 32 32
28 32 37 36 35 35 37 36 36 36 38 40 40 39 39 40 43 47 53 55 59 64 69 73 78 83 85 88 88 79 66 53 51 46 35 28 26 28 29 30 32 29 30 30 30 32 32
26 28 34 37 38 37 36 36 34 37 40 40 40 37 38 40 43 48 53 56 59 64 67 75 77 79 84 89 85 84 72 58 51 52 45 38 30 28 30 32 34 35 33 34 34 33 33
Wind_Direction
316 319 322 324 324 326 326 328 330 332 334 336 337 340 345 343 344 346 349 354 350 348 347 342 336 330 325 314 291 256 239 227 223 219 217 216 216 216 215 214 214 213 212 210 210 212 213
314 316 320 322 323 324 325 327 328 332 333 335 335 340 343 345 342 346 349 355 351 349 345 342 337 334 329 320 297 256 235 225 222 219 216 215 214 214 214 213 213 213 211 210 210 211 213
309 314 316 319 320 322 322 324 327 330 331 333 335 338 341 344 341 346 348 354 352 349 345 343 340 341 337 328 307 264 233 222 220 218 214 213 213 213 213 212 213 212 212 210 210 211 212
305 310 313 316 319 320 321 322 325 328 330 332 334 338 341 343 342 345 349 355 356 349 347 348 344 348 347 338 315 265 236 219 218 218 212 211 211 211 212 212 213 213 213 211 210 212 212
301 306 310 314 318 318 319 320 323 325 329 330 333 337 341 342 343 344 350 355 357 351 349 350 349 352 353 347 328 287 238 219 214 215 208 210 211 210 210 210 213 214 213 213 211 213 212
299 304 306 311 316 316 318 319 321 324 328 329 332 337 341 341 346 344 346 354 358 352 349 353 353 355 358 349 334 311 248 217 209 209 205 207 208 207 209 210 213 215 216 214 214 215 215
296 301 303 309 312 315 315 316 321 322 326 328 331 336 340 342 345 344 345 352 358 354 351 356 356 359 360 354 349 331 270 220 209 202 203 204 205 205 207 209 211 212 215 214 214 215 217
293 298 300 306 310 313 313 315 319 322 325 327 330 335 339 343 345 345 344 354 358 355 356 0 357 360 2 1 359 350 287 209 204 195 202 201 202 204 206 208 209 211 214 217 215 216 217
289 293 296 302 307 310 311 314 318 320 325 327 330 334 338 345 346 347 345 350 359 359 358 1 360 1 5 6 8 3 307 207 199 185 195 200 199 201 205 208 209 212 213 216 219 218 218
286 290 293 298 302 308 308 311 316 319 324 327 330 334 338 343 346 347 346 345 356 4 5 360 2 3 8 10 13 15 330 199 179 183 190 196 196 200 204 207 208 212 213 217 219 220 219
283 287 288 292 298 304 304 309 314 317 322 327 329 334 338 342 346 347 346 347 352 3 1 4 2 5 12 14 16 21 13 177 170 182 190 196 197 198 201 205 207 211 215 217 220 221 221
276 286 286 288 293 299 301 306 311 315 319 325 328 334 337 341 346 349 346 347 349 5 6 9 8 8 12 16 18 25 21 92 167 183 188 193 196 198 200 205 207 211 214 217 220 222 223
275 282 282 285 288 296 297 304 308 314 318 324 326 333 338 341 345 349 348 348 349 2 7 8 11 12 12 18 20 27 30 41 167 184 191 195 186 195 199 203 207 210 215 217 220 223 224
273 277 279 280 285 291 294 301 306 312 317 323 324 333 337 339 345 350 349 350 354 359 6 9 13 15 15 15 21 29 36 35 153 178 190 189 192 195 200 205 207 209 214 217 219 223 227
268 270 275 275 282 287 292 300 304 311 315 321 324 332 336 338 344 350 349 354 355 358 8 13 12 19 20 17 18 23 29 31 84 158 178 181 187 196 201 206 208 212 215 217 219 223 227
262 265 268 272 278 283 290 297 305 309 314 318 323 331 336 338 342 350 349 353 358 0 6 16 14 16 20 20 16 18 22 31 51 129 161 178 186 194 202 207 209 212 214 216 219 222 227
258 259 264 268 275 280 287 294 302 306 312 317 323 329 335 338 341 347 349 356 1 2 2 18 14 14 18 18 19 15 13 20 37 110 156 172 187 195 200 206 211 214 214 217 221 223 226
251 255 260 265 270 276 283 291 298 302 310 314 322 329 333 337 339 346 349 354 1 5 5 9 19 15 17 18 17 17 9 5 5 359 205 191 184 194 203 210 212 215 216 219 223 225 228
246 253 256 261 267 272 277 285 291 298 306 311 319 328 331 336 338 344 348 354 4 7 7 6 16 18 18 18 15 14 13 2 345 333 294 224 205 198 201 206 208 212 217 220 221 225 227
242 248 251 259 262 268 276 283 288 295 303 308 320 326 328 336 338 341 347 354 3 8 9 7 7 18 20 18 15 13 7 4 346 319 300 265 236 215 214 216 214 214 214 217 221 225 227
243 246 250 256 258 264 274 280 285 293 297 307 319 323 328 333 338 340 345 353 4 8 10 9 5 9 16 20 14 11 7 358 351 327 293 274 255 241 228 222 220 221 221 222 221 224 226
242 246 247 251 258 262 268 273 283 289 296 307 315 321 327 333 335 339 344 352 2 7 10 10 9 6 10 12 11 4 7 0 346 331 306 281 258 250 241 233 231 230 230 229 227 229 228
244 243 243 249 254 261 266 272 280 288 295 308 310 320 324 335 333 338 344 351 360 6 9 11 12 11 6 4 9 5 358 358 354 333 313 290 270 262 249 240 240 238 240 241 239 237 235
244 242 240 244 250 257 263 270 277 286 296 304 308 316 322 333 328 336 343 349 358 3 6 10 12 9 6 1 6 8 358 352 348 341 323 295 281 268 259 254 244 243 239 239 241 242 241
242 240 239 242 248 254 260 270 275 285 297 300 303 314 321 328 327 334 343 349 356 359 3 8 9 11 9 7 357 3 357 353 344 339 327 307 289 278 269 262 263 260 248 244 244 239 238
239 235 232 236 242 250 261 268 276 285 293 297 302 311 318 322 324 335 342 347 353 356 1 6 9 10 7 6 2 356 356 347 349 337 324 309 293 276 269 266 263 263 261 258 251 245 244
238 234 229 233 238 248 259 266 271 283 293 297 302 307 312 324 318 334 339 345 350 354 359 5 5 6 8 5 3 359 352 350 351 344 329 312 297 286 274 264 261 260 258 258 257 255 251
238 234 229 232 238 244 254 261 269 281 288 291 298 305 313 317 323 334 337 346 348 352 355 359 1 4 3 4 3 1 357 350 350 349 333 321 304 292 277 265 264 257 255 254 254 256 255
236 233 231 232 237 243 250 257 267 275 281 287 294 305 312 314 324 332 336 343 346 350 355 355 358 359 1 2 1 1 358 354 351 354 343 331 315 299 284 273 265 261 252 250 252 254 257
Height
10802 10796 10789 10782 10774 10766 10756 10747 10737 10726 10715 10701 10688 10675 10663 10646 10631 10619 10606 10586 10566 10545 10523 10505 10491 10476 10466 10459 10455 10450 10451 10455 10462 10474 10486 10498 10513 10529 10545 10562 10577 10593 10608 10624 10636 10650 10666
10797 10790 10784 10777 10768 10759 10750 10743 10732 10722 10711 10696 10682 10671 10657 10641 10623 10611 10595 10580 10559 10535 10515 10497 10480 10465 10453 10444 10439 10436 10435 10440 10447 10457 10472 10486 10499 10518 10533 10549 10562 10580 10596 10610 10623 10637 10654
10790 10784 10778 10770 10764 10754 10746 10737 10726 10717 10706 10693 10678 10665 10652 10635 10613 10604 10587 10574 10552 10528 10506 10486 10470 10455 10441 10432 10426 10423 10423 10427 10434 10443 10460 10473 10489 10507 10523 10535 10550 10568 10580 10595 10609 10623 10639
10782 10778 10772 10765 10759 10750 10742 10732 10722 10713 10702 10689 10674 10663 10647 10631 10608 10596 10583 10568 10546 10523 10499 10478 10460 10446 10431 10421 10416 10412 10412 10416 10422 10432 10449 10465 10478 10492 10509 10526 10538 10552 10564 10582 10600 10612 10626
10775 10771 10766 10760 10753 10744 10737 10727 10719 10709 10699 10685 10671 10658 10642 10626 10609 10590 10575 10562 10543 10521 10493 10472 10453 10438 10424 10414 10407 10403 10402 10404 10411 10421 10440 10451 10465 10483 10500 10512 10527 10541 10561 10578 10593 10602 10616
10767 10764 10758 10754 10747 10738 10732 10723 10714 10704 10695 10682 10667 10654 10640 10623 10605 10583 10567 10560 10541 10516 10490 10466 10447 10432 10419 10408 10399 10394 10392 10396 10401 10411 10427 10437 10453 10475 10490 10506 10528 10541 10553 10570 10581 10593 10604
10759 10756 10751 10748 10741 10733 10727 10718 10710 10700 10691 10679 10665 10652 10637 10619 10603 10582 10564 10553 10538 10517 10484 10462 10444 10430 10416 10403 10393 10387 10386 10388 10394 10406 10420 10431 10449 10468 10484 10495 10508 10527 10538 10553 10567 10575 10584
10750 10747 10743 10741 10735 10728 10721 10713 10705 10696 10686 10675 10661 10649 10633 10619 10601 10580 10559 10551 10536 10514 10484 10460 10442 10426 10413 10400 10391 10384 10381 10382 10389 10404 10416 10428 10443 10460 10474 10488 10502 10513 10526 10539 10551 10561 10573
10741 10738 10735 10733 10728 10722 10715 10708 10701 10691 10682 10671 10659 10646 10632 10621 10600 10578 10557 10548 10536 10516 10486 10465 10445 10428 10412 10401 10391 10384 10380 10381 10387 10402 10412 10424 10442 10454 10468 10484 10497 10506 10517 10528 10537 10551 10566
10731 10729 10726 10725 10722 10716 10709 10703 10696 10687 10679 10667 10655 10643 10629 10617 10599 10580 10557 10539 10533 10518 10493 10469 10447 10429 10414 10401 10393 10386 10382 10383 10389 10396 10406 10419 10432 10449 10465 10477 10489 10497 10507 10516 10526 10542 10557
10721 10719 10717 10716 10715 10710 10702 10697 10691 10682 10674 10664 10652 10641 10627 10615 10600 10578 10559 10536 10523 10516 10499 10473 10449 10432 10417 10406 10397 10391 10386 10387 10391 10398 10409 10419 10432 10444 10457 10470 10481 10491 10499 10509 10518 10533 10548
10711 10709 10708 10707 10707 10704 10696 10692 10685 10678 10669 10660 10649 10639 10626 10614 10598 10579 10559 10537 10519 10515 10500 10476 10454 10434 10422 10411 10402 10396 10393 10394 10397 10399 10407 10416 10427 10442 10454 10465 10476 10482 10491 10502 10514 10525 10538
10700 10700 10699 10697 10698 10696 10689 10686 10679 10673 10664 10656 10645 10635 10623 10612 10598 10583 10562 10540 10520 10512 10503 10483 10461 10442 10428 10418 10410 10403 10400 10400 10404 10405 10410 10418 10432 10440 10450 10458 10466 10476 10486 10498 10509 10518 10529
10688 10690 10688 10686 10689 10688 10682 10679 10674 10667 10659 10652 10641 10634 10622 10610 10599 10583 10565 10542 10518 10508 10503 10484 10465 10450 10434 10425 10418 10411 10408 10408 10410 10412 10415 10425 10432 10440 10449 10456 10463 10472 10481 10493 10502 10509 10515
10676 10678 10677 10676 10679 10679 10675 10673 10668 10662 10654 10647 10638 10631 10622 10610 10597 10583 10566 10546 10527 10503 10503 10489 10470 10455 10441 10430 10423 10419 10415 10414 10415 10418 10423 10428 10434 10439 10446 10451 10461 10471 10480 10488 10494 10497 10500
10663 10666 10666 10666 10669 10669 10668 10667 10661 10656 10649 10642 10635 10628 10620 10608 10596 10584 10570 10552 10530 10510 10497 10493 10475 10458 10447 10436 10428 10424 10423 10421 10420 10420 10422 10427 10433 10437 10442 10450 10457 10465 10471 10477 10483 10487 10493
10650 10654 10655 10656 10660 10660 10662 10659 10654 10650 10644 10638 10632 10626 10617 10606 10595 10584 10571 10555 10536 10513 10496 10496 10482 10464 10450 10441 10432 10428 10425 10424 10422 10424 10424 10427 10431 10435 10442 10446 10451 10457 10465 10470 10475 10480 10487
10637 10641 10645 10647 10650 10652 10653 10651 10648 10643 10639 10633 10628 10623 10614 10605 10595 10585 10573 10556 10541 10518 10499 10488 10486 10470 10455 10445 10437 10430 10427 10424 10423 10423 10425 10427 10428 10432 10437 10440 10446 10451 10458 10463 10468 10473 10479
10624 10629 10634 10637 10640 10643 10643 10643 10641 10636 10633 10628 10625 10619 10610 10602 10592 10582 10572 10558 10541 10523 10506 10489 10483 10476 10462 10450 10440 10434 10431 10429 10425 10424 10424 10425 10427 10428 10431 10435 10438 10443 10447 10451 10456 10461 10467
10611 10617 10623 10627 10631 10633 10633 10634 10632 10630 10626 10622 10620 10614 10606 10600 10590 10581 10571 10560 10542 10526 10511 10491 10477 10473 10468 10455 10445 10437 10432 10429 10428 10426 10422 10422 10424 10426 10427 10429 10433 10435 10438 10441 10447 10453 10454
10600 10606 10612 10617 10622 10624 10624 10624 10623 10623 10620 10617 10614 10609 10603 10595 10588 10578 10569 10557 10545 10528 10516 10497 10478 10469 10466 10457 10450 10439 10433 10428 10426 10425 10423 10421 10420 10421 10423 10425 10426 10427 10430 10433 10437 10437 10445
10589 10595 10602 10608 10612 10615 10615 10614 10614 10615 10612 10610 10606 10602 10598 10592 10585 10575 10567 10555 10543 10529 10516 10502 10483 10467 10461 10453 10447 10441 10434 10426 10424 10420 10420 10419 10418 10417 10417 10418 10420 10422 10423 10425 10427 10431 10437
10578 10585 10592 10598 10602 10605 10605 10606 10607 10607 10605 10604 10597 10596 10592 10589 10580 10574 10566 10552 10540 10528 10519 10504 10491 10476 10459 10454 10447 10436 10428 10423 10419 10417 10415 10414 10414 10413 10412 10411 10412 10413 10414 10419 10420 10420 10425
10568 10574 10581 10587 10592 10595 10596 10597 10599 10599 10598 10597 10592 10590 10587 10583 10576 10570 10563 10551 10539 10527 10517 10507 10493 10479 10469 10451 10444 10435 10426 10419 10414 10410 10409 10408 10407 10407 10406 10405 10405 10405 10407 10408 10410 10412 10416
10559 10565 10571 10577 10581 10585 10587 10589 10591 10592 10591 10590 10585 10584 10581 10576 10571 10565 10559 10547 10536 10524 10515 10505 10492 10484 10470 10453 10436 10430 10426 10419 10411 10404 10402 10399 10397 10398 10397 10397 10396 10398 10400 10400 10401 10403 10402
10549 10555 10561 10567 10573 10576 10578 10581 10583 10583 10584 10582 10579 10577 10574 10570 10565 10559 10554 10544 10533 10522 10511 10502 10491 10480 10469 10456 10449 10440 10427 10419 10408 10401 10395 10392 10390 10389 10389 10389 10388 10390 10391 10391 10392 10393 10392
10540 10546 10552 10558 10564 10568 10570 10572 10573 10575 10576 10574 10572 10570 10567 10565 10557 10553 10548 10538 10527 10517 10507 10497 10488 10480 10470 10459 10446 10433 10422 10411 10404 10398 10392 10387 10383 10381 10380 10380 10379 10381 10382 10382 10384 10383 10384
10532 10537 10543 10549 10555 10560 10562 10564 10566 10567 10567 10566 10565 10564 10561 10557 10551 10546 10540 10531 10522 10513 10502 10493 10484 10475 10466 10457 10444 10431 10421 10408 10399 10393 10386 10381 10378 10375 10374 10372 10369 10372 10371 10372 10372 10374 10375
10524 10528 10533 10539 10545 10549 10552 10556 10559 10559 10559 10558 10557 10556 10553 10550 10544 10539 10532 10525 10517 10508 10498 10486 10479 10470 10463 10453 10440 10427 10417 10406 10398 10387 10380 10373 10369 10367 10365 10364 10362 10360 10361 10361 10362 10363 10365